Location: Huntsville
(41.2590°N, 111.7678°W)
Time: 01:36:50
(UTC+00:00)

Envisat - Visible Passes

Search period start: 02 December 2021 00:00
Search period end: 12 December 2021 00:00
Orbit: 764 x 766 km, 98.2° (Epoch: 01 December)

Date Brightness Start Highest point End Pass type
(mag) Time Alt. Az. Time Alt. Az. Time Alt. Az.
02 Dec 4.5 11:50:56 10° NNE 11:55:36 35° E 12:00:13 10° SSE visible
02 Dec 3.8 13:30:12 10° N 13:34:27 27° WNW 13:38:40 10° WSW visible
03 Dec 5.8 00:45:38 10° SW 00:49:21 20° W 00:53:04 10° NW visible
03 Dec 5.7 11:15:19 10° NE 11:18:26 16° E 11:21:32 10° SE visible
03 Dec 3.0 12:52:49 10° N 12:57:49 59° WNW 13:02:47 10° SSW visible
04 Dec 3.4 12:15:56 10° NNE 12:20:59 63° E 12:26:01 10° S visible
04 Dec 4.4 13:56:21 10° NNW 13:59:28 17° WNW 14:02:36 10° W visible
05 Dec 6.3 01:13:29 10° WSW 01:14:57 11° W 01:16:24 10° WNW visible
05 Dec 4.9 11:39:37 10° NE 11:43:58 28° E 11:48:17 10° SSE visible
05 Dec 3.6 13:18:26 10° N 13:22:59 34° WNW 13:27:31 10° SW visible
06 Dec 5.5 00:33:30 10° SSW 00:37:41 26° W 00:41:54 10° NW visible
06 Dec 6.0 11:04:40 10° ENE 11:06:45 12° E 11:08:49 10° ESE visible
06 Dec 2.8 12:41:13 10° N 12:46:17 75° WNW 12:51:21 10° SSW visible
07 Dec 3.8 12:04:28 10° NNE 12:09:24 49° E 12:14:18 10° S visible
07 Dec 4.2 13:44:21 10° NNW 13:48:03 21° WNW 13:51:45 10° WSW visible
08 Dec 6.0 01:00:29 10° WSW 01:03:15 15° W 01:06:02 10° WNW visible
08 Dec 5.3 11:28:24 10° NE 11:32:19 22° E 11:36:13 10° SE visible
08 Dec 3.3 13:06:42 10° N 13:11:30 43° WNW 13:16:16 10° SW visible
09 Dec 5.1 00:21:32 10° SSW 00:26:04 32° W 00:30:37 10° NNW visible
09 Dec 2.9 12:29:38 10° NNE 12:34:45 86° ESE 12:39:50 10° SSW visible
09 Dec 4.7 14:11:00 10° NW 14:13:01 12° WNW 14:15:02 10° W visible
10 Dec 4.3 11:53:03 10° NNE 11:57:48 38° E 12:02:30 10° SSE visible
10 Dec 3.9 13:32:28 10° NNW 13:36:36 26° WNW 13:40:43 10° WSW visible
11 Dec 5.8 00:48:02 10° SW 00:51:34 19° W 00:55:07 10° NW visible
11 Dec 5.6 11:17:19 10° NE 11:20:39 17° E 11:23:58 10° SE visible
11 Dec 3.0 12:55:02 10° N 12:59:59 55° WNW 13:04:56 10° SSW visible
